When you browse on this site, cookies collect data to enhance your experience and personalize the content and advertising you see.
Visit our Privacy Policy to learn more. By continuing to use the site, you agree to this use of cookies and data.
  • In Hungary
  • List of Countries
  • For 7 days
  • Water Temperature
  • Satellite Maps
  • Weather Map
  • News
  • Weather Widgets
  • user-avatar
    Login

    Hourly Weather Viduty

    Today, 18 July, Thursday

    Time Temperature Precipitation Wind Pressure Humidity
    00:00 +11°C° 0 mm 3 mps 740 mmHg 94%
    01:00 +11°C° 0 mm 3 mps 740 mmHg 95%
    02:00 +11°C° 0 mm 3 mps 740 mmHg 95%
    03:00 +10°C° 0 mm 3 mps 740 mmHg 96%
    04:00 +10°C° 0 mm 4 mps 740 mmHg 96%
    05:00 +10°C° 0 mm 4 mps 740 mmHg 97%
    06:00 +11°C° 0 mm 4 mps 740 mmHg 94%
    07:00 +12°C° 0 mm 4 mps 741 mmHg 92%
    08:00 +13°C° 0 mm 4 mps 741 mmHg 89%
    09:00 +14°C° 0 mm 4 mps 741 mmHg 86%
    10:00 +15°C° 0 mm 4 mps 741 mmHg 83%
    11:00 +17°C° 0 mm 4 mps 742 mmHg 80%
    12:00 +18°C° 0.1 mm 4 mps 742 mmHg 75%
    13:00 +20°C° 0.1 mm 4 mps 742 mmHg 69%
    14:00 +21°C° 0.1 mm 4 mps 742 mmHg 63%
    15:00 +21°C° 0.1 mm 4 mps 742 mmHg 63%
    16:00 +22°C° 0.1 mm 4 mps 742 mmHg 62%
    17:00 +22°C° 0.1 mm 4 mps 742 mmHg 61%
    18:00 +21°C° 0.1 mm 3 mps 742 mmHg 67%
    19:00 +19°C° 0.1 mm 3 mps 742 mmHg 73%
    20:00 +18°C° 0.1 mm 2 mps 742 mmHg 79%
    21:00 +17°C° 0 mm 2 mps 742 mmHg 82%
    22:00 +16°C° 0 mm 2 mps 742 mmHg 85%
    23:00 +15°C° 0 mm 2 mps 743 mmHg 88%

    Tomorrow, 19 July, Friday

    Time Temperature Precipitation Wind Pressure Humidity
    00:00 +14°C° 0 mm 2 mps 743 mmHg 89%
    01:00 +14°C° 0 mm 2 mps 743 mmHg 89%
    02:00 +13°C° 0 mm 2 mps 743 mmHg 90%
    03:00 +13°C° 0 mm 2 mps 743 mmHg 90%
    04:00 +13°C° 0 mm 2 mps 743 mmHg 90%
    05:00 +13°C° 0 mm 2 mps 743 mmHg 89%
    06:00 +15°C° 0 mm 2 mps 743 mmHg 83%
    07:00 +17°C° 0 mm 2 mps 744 mmHg 77%
    08:00 +19°C° 0 mm 2 mps 744 mmHg 71%
    09:00 +20°C° 0 mm 2 mps 744 mmHg 65%
    10:00 +21°C° 0 mm 2 mps 744 mmHg 59%
    11:00 +24°C° 0 mm 3 mps 744 mmHg 54%
    12:00 +24°C° 0 mm 3 mps 744 mmHg 53%
    13:00 +24°C° 0 mm 3 mps 744 mmHg 52%
    14:00 +25°C° 0 mm 3 mps 744 mmHg 51%
    15:00 +25°C° 0 mm 3 mps 744 mmHg 53%
    16:00 +25°C° 0 mm 3 mps 744 mmHg 54%
    17:00 +24°C° 0 mm 3 mps 744 mmHg 56%
    18:00 +23°C° 0 mm 2 mps 744 mmHg 61%
    19:00 +21°C° 0 mm 2 mps 744 mmHg 66%
    20:00 +20°C° 0 mm 1 mps 744 mmHg 71%
    21:00 +19°C° 0 mm 1 mps 744 mmHg 72%
    22:00 +17°C° 0 mm 2 mps 744 mmHg 74%
    23:00 +16°C° 0 mm 2 mps 745 mmHg 76%

    Day after tomorrow, 20 July, Saturday

    Time Temperature Precipitation Wind Pressure Humidity
    00:00 +16°C° 0 mm 2 mps 745 mmHg 76%
    01:00 +16°C° 0 mm 2 mps 745 mmHg 77%
    02:00 +15°C° 0 mm 2 mps 745 mmHg 78%
    03:00 +15°C° 0 mm 2 mps 745 mmHg 78%
    04:00 +15°C° 0 mm 1 mps 745 mmHg 79%
    05:00 +15°C° 0 mm 1 mps 745 mmHg 80%
    06:00 +16°C° 0 mm 1 mps 745 mmHg 78%
    07:00 +19°C° 0 mm 1 mps 745 mmHg 77%
    08:00 +20°C° 0 mm 1 mps 746 mmHg 75%
    09:00 +22°C° 0.3 mm 1 mps 746 mmHg 71%
    10:00 +23°C° 0.3 mm 2 mps 746 mmHg 66%
    11:00 +24°C° 0.3 mm 2 mps 746 mmHg 62%
    12:00 +25°C° 0 mm 2 mps 746 mmHg 58%
    13:00 +26°C° 0 mm 1 mps 746 mmHg 55%
    14:00 +27°C° 0 mm 1 mps 746 mmHg 51%
    15:00 +27°C° 0 mm 1 mps 746 mmHg 52%
    16:00 +26°C° 0 mm 2 mps 746 mmHg 53%
    17:00 +26°C° 0 mm 2 mps 746 mmHg 55%
    18:00 +25°C° 0 mm 2 mps 746 mmHg 61%
    19:00 +23°C° 0 mm 2 mps 746 mmHg 68%
    20:00 +22°C° 0 mm 1 mps 746 mmHg 75%
    21:00 +21°C° 0 mm 1 mps 746 mmHg 78%
    22:00 +20°C° 0 mm 1 mps 746 mmHg 82%
    23:00 +19°C° 0 mm 1 mps 747 mmHg 85%

    21 July, Sunday

    Time Temperature Precipitation Wind Pressure Humidity
    00:00 +18°C° 0 mm 1 mps 746 mmHg 87%
    01:00 +18°C° 0 mm 1 mps 746 mmHg 88%
    02:00 +16°C° 0 mm 1 mps 746 mmHg 89%
    03:00 +16°C° 0 mm 1 mps 746 mmHg 90%
    04:00 +16°C° 0 mm 1 mps 746 mmHg 90%
    05:00 +16°C° 0 mm 1 mps 746 mmHg 90%
    06:00 +17°C° 0 mm 2 mps 746 mmHg 85%
    07:00 +19°C° 0 mm 2 mps 746 mmHg 79%
    08:00 +21°C° 0 mm 3 mps 746 mmHg 74%
    09:00 +22°C° 0 mm 3 mps 746 mmHg 69%
    10:00 +25°C° 0 mm 2 mps 746 mmHg 64%
    11:00 +26°C° 0 mm 2 mps 746 mmHg 59%
    12:00 +27°C° 0 mm 2 mps 746 mmHg 56%
    13:00 +28°C° 0 mm 2 mps 746 mmHg 53%
    14:00 +29°C° 0 mm 2 mps 746 mmHg 50%
    15:00 +28°C° 0.1 mm 2 mps 745 mmHg 55%
    16:00 +28°C° 0.1 mm 2 mps 745 mmHg 60%
    17:00 +28°C° 0.1 mm 2 mps 745 mmHg 65%
    18:00 +26°C° 1.5 mm 2 mps 745 mmHg 71%
    19:00 +24°C° 1.5 mm 3 mps 745 mmHg 77%
    20:00 +22°C° 1.5 mm 4 mps 745 mmHg 83%
    21:00 +21°C° 1.8 mm 4 mps 745 mmHg 86%
    22:00 +19°C° 1.8 mm 3 mps 745 mmHg 90%
    23:00 +18°C° 1.8 mm 2 mps 745 mmHg 93%

    22 July, Monday

    Time Temperature Precipitation Wind Pressure Humidity
    00:00 +18°C° 0.1 mm 3 mps 745 mmHg 94%
    01:00 +18°C° 0.1 mm 3 mps 745 mmHg 94%
    02:00 +17°C° 0.1 mm 3 mps 745 mmHg 95%
    03:00 +17°C° 0 mm 3 mps 745 mmHg 95%
    04:00 +17°C° 0 mm 4 mps 745 mmHg 96%
    05:00 +17°C° 0 mm 4 mps 745 mmHg 96%
    06:00 +18°C° 0 mm 4 mps 745 mmHg 92%
    07:00 +19°C° 0 mm 4 mps 745 mmHg 88%
    08:00 +20°C° 0 mm 4 mps 746 mmHg 84%
    09:00 +21°C° 0 mm 4 mps 746 mmHg 78%
    10:00 +23°C° 0 mm 4 mps 746 mmHg 72%
    11:00 +25°C° 0 mm 4 mps 746 mmHg 66%
    12:00 +25°C° 0.2 mm 4 mps 746 mmHg 65%
    13:00 +26°C° 0.2 mm 4 mps 746 mmHg 64%
    14:00 +26°C° 0.2 mm 4 mps 746 mmHg 62%
    15:00 +26°C° 0.1 mm 4 mps 746 mmHg 63%
    16:00 +26°C° 0.1 mm 4 mps 745 mmHg 64%
    17:00 +25°C° 0.1 mm 4 mps 745 mmHg 64%
    18:00 +24°C° 0.1 mm 3 mps 745 mmHg 70%
    19:00 +22°C° 0.1 mm 3 mps 745 mmHg 75%
    20:00 +21°C° 0.1 mm 2 mps 745 mmHg 80%
    21:00 +20°C° 0.3 mm 2 mps 745 mmHg 82%
    22:00 +19°C° 0.3 mm 2 mps 745 mmHg 84%
    23:00 +18°C° 0.3 mm 2 mps 745 mmHg 85%

    23 July, Tuesday

    Time Temperature Precipitation Wind Pressure Humidity
    00:00 +18°C° 0.1 mm 2 mps 745 mmHg 88%
    01:00 +17°C° 0.1 mm 2 mps 745 mmHg 91%
    02:00 +17°C° 0.1 mm 2 mps 745 mmHg 93%
    03:00 +16°C° 0.1 mm 2 mps 745 mmHg 94%
    04:00 +16°C° 0.1 mm 2 mps 745 mmHg 95%
    05:00 +16°C° 0.1 mm 2 mps 745 mmHg 95%
    06:00 +17°C° 0 mm 2 mps 745 mmHg 92%
    07:00 +18°C° 0 mm 3 mps 745 mmHg 89%
    08:00 +20°C° 0 mm 3 mps 746 mmHg 85%
    09:00 +21°C° 0.1 mm 3 mps 746 mmHg 80%
    10:00 +22°C° 0.1 mm 3 mps 746 mmHg 74%
    11:00 +23°C° 0.1 mm 4 mps 746 mmHg 69%
    12:00 +25°C° 0.6 mm 4 mps 746 mmHg 68%
    13:00 +25°C° 0.6 mm 4 mps 746 mmHg 67%
    14:00 +26°C° 0.6 mm 4 mps 746 mmHg 66%
    15:00 +26°C° 0.6 mm 4 mps 746 mmHg 67%
    16:00 +26°C° 0.6 mm 4 mps 746 mmHg 67%
    17:00 +26°C° 0.6 mm 4 mps 746 mmHg 67%
    18:00 +24°C° 0.2 mm 3 mps 746 mmHg 73%
    19:00 +22°C° 0.2 mm 3 mps 746 mmHg 78%
    20:00 +21°C° 0.2 mm 2 mps 746 mmHg 84%
    21:00 +20°C° 0 mm 2 mps 746 mmHg 85%
    22:00 +19°C° 0 mm 2 mps 746 mmHg 86%
    23:00 +19°C° 0 mm 2 mps 746 mmHg 88%
    Show more